KAZEOSAT 2

Last updated on Wed Oct 29 2025 00:02:30 GMT+0000 (Coordinated Universal Time)

1 40010U 14033A 25301.61755192 .00001065 00000+0 13057-3 0 9993 2 40010 97.5561 148.2526 0008975 13.7953 346.3507 14.85057400614581
UTC large
Height (km)
Speed (km/s)
/
Latitude / Longitude
Inclination (degrees)
Orbital Period (minutes)
Azimuth
Elevation
Range (km)
Doppler Factor

Next 0 passes for location: London (51.5072 / 0.1276)

Sorry there are no passes over London.